User: anonymous   Login
Location: Brede
(50.9167°N, 0.6000°E)
Time: 23:05:35
(UTC+00:00)
Language:

Altair - Orbit

View from above orbital plane
View from above orbital plane
View from above satellite
View from above satellite

Ground track
Ground track

The orbit data is extracted from the following two-line orbital elements,

1 00050U 60009B   21210.53365464 -.00000095  00000-0 -79721-4 0  9998
2 00050  47.2321 297.8309 0113355  99.1633 262.1999 12.20116037719922
Epoch (UTC): 29 July 2021 12:48:27
Eccentricity: 0.0113355
inclination: 47.2321°
perigee height: 1501 km
apogee height: 1682 km
right ascension of ascending node: 297.8309°
argument of perigee: 99.1633°
revolutions per day: 12.20116037
mean anomaly at epoch: 262.1999°
orbit number at epoch: 71992

The dashed part of the orbit path shows where the satellite is in the earth's shadow,  

DLR